Regional Weather Roundup
Issued by NWS

Home | Current Version | Previous Version | Text Only | Print | Product List | Glossary On
Versions: 1 2 3 4 5 6 7 8 9 10 11 12 13 14 15 16 17 18 19 20 21 22 23 24 25 26 27 28 29 30 31 32 33 34 35 36 37 38 39 40 41 42 43 44 45 46 47 48 49 50
398
ASUS44 KLIX 020207
RWRLA
LOUISIANA WEATHER ROUNDUP
NATIONAL WEATHER SERVICE NEW ORLEANS LA
900 PM CDT WED APR 01 2015

NOTE: "FAIR" INDICATES FEW OR NO CLOUDS BELOW 12,000 FEET WITH NO
      SIGNIFICANT WEATHER AND/OR OBSTRUCTIONS TO VISIBILITY.
      SKY/WX - SKY CONDITION AND SIGNIFICANT WEATHER.
      TMP - AIR TEMPERATURE.    DP   - DEWPOINT TEMPERATURE.
      RH  - RELATIVE HUMIDITY.  PRES - PRESSURE.
      HX  - HEAT INDEX.         WCI  - WIND CHILL INDEX.

*  THESE STATIONS ARE NOT NWS OR FAA STATIONS AND ARE NOT UNDER
   NWS QUALITY CONTROL.

LAZ040-048-061>063-065-066-069-020300-
SOUTHEAST LOUISIANA

CITY           SKY/WX    TMP DP  RH WIND       PRES   REMARKS
N.O. AUDUBON     N/A     73  70  92 MISG        N/A
N.O. INTL ARPT CLOUDY    73  66  78 SE8       30.03S
N.O. LAKEFRONT CLOUDY    75  65  70 S9        30.05R
SLIDELL        CLOUDY    72  67  84 SE5       30.05R
BATON ROUGE    CLOUDY    72  63  73 S10       30.03R
BOOTHVILLE     CLOUDY    72  69  90 SE5       30.07R
BELLE CHASSE   CLOUDY    72  65  78 SE8       30.04R
BOGALUSA*        N/A     74  64  72 SE6       30.05S
GALLIANO*      CLOUDY    71  68  91 CALM      30.06R
NEW ROADS*     FAIR      72  63  74 S5        30.02R
GONZALES*      FAIR      72  65  78 S3        30.04R
HAMMOND*       CLOUDY    72  63  73 S5        30.04F
HOUMA*         CLOUDY    72  67  87 S7        30.04S
PORT FOURCHON* CLEAR     75  70  83 SE5       30.09R

$$

LAZ041-044-053-054-020300-
SOUTHWEST LOUISIANA

CITY           SKY/WX    TMP DP  RH WIND       PRES   REMARKS
LAKE CHARLES   CLOUDY    71  67  87 S8        29.99S
LAFAYETTE      CLOUDY    72  66  81 S6        30.02R
PATTERSON      MOCLDY    70  64  83 SE3       30.05R
SALT POINT       N/A     71  67  87 SE6       30.02R
NEW IBERIA     CLOUDY    72  67  84 SE8       30.02S
CHENAULT AIRPK CLEAR     70  66  88 SE8       30.00R

$$

LAZ027-028-020300-
CENTRAL LOUISIANA

CITY           SKY/WX    TMP DP  RH WIND       PRES   REMARKS
FORT POLK      CLOUDY    70  65  85 S7        29.98R
ALEXANDRIA INT CLOUDY    72  62  71 S6        29.96R
ALEXANDRIA     CLOUDY    73  63  70 S7        29.98R

$$

LAZ001-002-020300-
NORTHWEST LOUISIANA

CITY           SKY/WX    TMP DP  RH WIND       PRES   REMARKS
SHREVEPORT     MOCLDY    72  63  73 S15       29.92R
BARKSDALE AFB  CLEAR     71  64  77 S16       29.92R
DTN SHREVEPORT CLEAR     71  61  70 S14       29.92R

$$

LAZ014-016-020300-
NORTHEAST LOUISIANA

CITY           SKY/WX    TMP DP  RH WIND       PRES   REMARKS
MONROE         MOCLDY    70  62  76 SW7       29.96R
TALLULAH       CLOUDY    74  56  53 S3        29.98R

$$




USA.gov is the U.S. government's official web portal to all federal, state and local government web resources and services.